When you browse on this site, cookies collect data to enhance your experience and personalize the content and advertising you see.
Visit our Privacy Policy to learn more. By continuing to use the site, you agree to this use of cookies and data.
  • In Portugal
  • List of Countries
  • For 7 days
  • Water Temperature
  • Satellite Maps
  • Weather Map
  • Weather Widgets
  • user-avatar
    Login

    Hourly Weather Czarnocin

    Today, 20 June, Thursday

    Time Temperature Precipitation Wind Pressure Humidity
    00:00 +21°C° 0 mm 1 mps 738 mmHg 78%
    01:00 +21°C° 0 mm 1 mps 738 mmHg 80%
    02:00 +20°C° 0 mm 1 mps 738 mmHg 81%
    03:00 +20°C° 0 mm 1 mps 738 mmHg 82%
    04:00 +19°C° 0 mm 1 mps 738 mmHg 83%
    05:00 +21°C° 0 mm 1 mps 738 mmHg 79%
    06:00 +22°C° 0 mm 1 mps 738 mmHg 75%
    07:00 +24°C° 0 mm 1 mps 739 mmHg 71%
    08:00 +25°C° 0 mm 1 mps 739 mmHg 66%
    09:00 +27°C° 0 mm 1 mps 739 mmHg 62%
    10:00 +28°C° 0 mm 1 mps 739 mmHg 57%
    11:00 +29°C° 0 mm 1 mps 739 mmHg 55%
    12:00 +29°C° 0 mm 1 mps 739 mmHg 53%
    13:00 +30°C° 0 mm 1 mps 739 mmHg 50%
    14:00 +29°C° 0 mm 1 mps 738 mmHg 53%
    15:00 +29°C° 0 mm 1 mps 738 mmHg 56%
    16:00 +29°C° 0 mm 1 mps 738 mmHg 59%
    17:00 +27°C° 0.2 mm 2 mps 738 mmHg 66%
    18:00 +25°C° 0.2 mm 2 mps 738 mmHg 72%
    19:00 +24°C° 0.2 mm 2 mps 738 mmHg 79%
    20:00 +23°C° 0.5 mm 2 mps 738 mmHg 80%
    21:00 +22°C° 0.5 mm 1 mps 738 mmHg 81%
    22:00 +21°C° 0.5 mm 1 mps 738 mmHg 82%
    23:00 +21°C° 0 mm 1 mps 739 mmHg 82%

    Tomorrow, 21 June, Friday

    Time Temperature Precipitation Wind Pressure Humidity
    00:00 +20°C° 0 mm 1 mps 739 mmHg 83%
    01:00 +20°C° 0 mm 1 mps 739 mmHg 83%
    02:00 +19°C° 0 mm 1 mps 739 mmHg 85%
    03:00 +19°C° 0 mm 1 mps 739 mmHg 87%
    04:00 +19°C° 0 mm 1 mps 739 mmHg 89%
    05:00 +19°C° 0.3 mm 2 mps 739 mmHg 88%
    06:00 +20°C° 0.3 mm 2 mps 740 mmHg 87%
    07:00 +21°C° 0.3 mm 2 mps 740 mmHg 85%
    08:00 +24°C° 0.1 mm 2 mps 740 mmHg 81%
    09:00 +25°C° 0.1 mm 2 mps 740 mmHg 76%
    10:00 +26°C° 0.1 mm 2 mps 740 mmHg 72%
    11:00 +26°C° 1.8 mm 3 mps 740 mmHg 71%
    12:00 +27°C° 1.8 mm 3 mps 740 mmHg 70%
    13:00 +27°C° 1.8 mm 3 mps 740 mmHg 69%
    14:00 +27°C° 1.5 mm 3 mps 740 mmHg 71%
    15:00 +26°C° 1.5 mm 3 mps 740 mmHg 74%
    16:00 +26°C° 1.5 mm 3 mps 740 mmHg 77%
    17:00 +24°C° 0.3 mm 3 mps 740 mmHg 81%
    18:00 +22°C° 0.3 mm 3 mps 740 mmHg 85%
    19:00 +21°C° 0.3 mm 3 mps 740 mmHg 89%
    20:00 +20°C° 0 mm 2 mps 741 mmHg 89%
    21:00 +20°C° 0 mm 2 mps 741 mmHg 89%
    22:00 +21°C° 0 mm 1 mps 741 mmHg 88%
    23:00 +20°C° 0.1 mm 1 mps 741 mmHg 89%

    Day after tomorrow, 22 June, Saturday

    Time Temperature Precipitation Wind Pressure Humidity
    00:00 +19°C° 0.1 mm 2 mps 742 mmHg 90%
    01:00 +19°C° 0.1 mm 2 mps 742 mmHg 92%
    02:00 +19°C° 0 mm 2 mps 742 mmHg 93%
    03:00 +18°C° 0 mm 2 mps 742 mmHg 94%
    04:00 +18°C° 0 mm 3 mps 742 mmHg 96%
    05:00 +19°C° 0.1 mm 3 mps 743 mmHg 94%
    06:00 +20°C° 0.1 mm 3 mps 743 mmHg 92%
    07:00 +20°C° 0.1 mm 4 mps 743 mmHg 91%
    08:00 +21°C° 0.1 mm 4 mps 743 mmHg 86%
    09:00 +22°C° 0.1 mm 4 mps 743 mmHg 81%
    10:00 +23°C° 0.1 mm 4 mps 744 mmHg 76%
    11:00 +23°C° 0.3 mm 4 mps 743 mmHg 73%
    12:00 +25°C° 0.3 mm 5 mps 743 mmHg 70%
    13:00 +26°C° 0.3 mm 5 mps 743 mmHg 67%
    14:00 +26°C° 0.2 mm 5 mps 743 mmHg 68%
    15:00 +25°C° 0.2 mm 5 mps 743 mmHg 69%
    16:00 +25°C° 0.2 mm 5 mps 743 mmHg 70%
    17:00 +23°C° 0.1 mm 4 mps 743 mmHg 74%
    18:00 +22°C° 0.1 mm 4 mps 743 mmHg 78%
    19:00 +21°C° 0.1 mm 4 mps 743 mmHg 82%
    20:00 +20°C° 0 mm 4 mps 743 mmHg 82%
    21:00 +19°C° 0 mm 4 mps 743 mmHg 82%
    22:00 +18°C° 0 mm 4 mps 743 mmHg 83%
    23:00 +18°C° 0 mm 4 mps 743 mmHg 84%

    23 June, Sunday

    Time Temperature Precipitation Wind Pressure Humidity
    00:00 +18°C° 0 mm 4 mps 743 mmHg 84%
    01:00 +17°C° 0 mm 4 mps 743 mmHg 85%
    02:00 +17°C° 0.1 mm 4 mps 743 mmHg 86%
    03:00 +15°C° 0.1 mm 4 mps 743 mmHg 88%
    04:00 +16°C° 0.1 mm 3 mps 743 mmHg 90%
    05:00 +16°C° 0.3 mm 3 mps 743 mmHg 90%
    06:00 +15°C° 0.3 mm 4 mps 743 mmHg 89%
    07:00 +17°C° 0.3 mm 4 mps 743 mmHg 89%
    08:00 +17°C° 0.2 mm 4 mps 744 mmHg 88%
    09:00 +18°C° 0.2 mm 3 mps 744 mmHg 87%
    10:00 +18°C° 0.2 mm 3 mps 744 mmHg 87%
    11:00 +19°C° 0.1 mm 3 mps 744 mmHg 84%
    12:00 +20°C° 0.1 mm 4 mps 744 mmHg 81%
    13:00 +21°C° 0.1 mm 4 mps 744 mmHg 79%
    14:00 +21°C° 0.1 mm 4 mps 744 mmHg 80%
    15:00 +21°C° 0.1 mm 4 mps 744 mmHg 81%
    16:00 +21°C° 0.1 mm 4 mps 744 mmHg 81%
    17:00 +21°C° 0.1 mm 3 mps 744 mmHg 84%
    18:00 +20°C° 0.1 mm 3 mps 744 mmHg 86%
    19:00 +19°C° 0.1 mm 2 mps 744 mmHg 88%
    20:00 +19°C° 0 mm 2 mps 744 mmHg 89%
    21:00 +18°C° 0 mm 2 mps 745 mmHg 90%
    22:00 +18°C° 0 mm 2 mps 745 mmHg 91%
    23:00 +18°C° 0.1 mm 2 mps 745 mmHg 93%

    24 June, Monday

    Time Temperature Precipitation Wind Pressure Humidity
    00:00 +17°C° 0.1 mm 3 mps 745 mmHg 94%
    01:00 +17°C° 0.1 mm 3 mps 745 mmHg 95%
    02:00 +17°C° 0.5 mm 3 mps 745 mmHg 95%
    03:00 +17°C° 0.5 mm 3 mps 745 mmHg 95%
    04:00 +17°C° 0.5 mm 4 mps 745 mmHg 95%
    05:00 +17°C° 0.1 mm 4 mps 745 mmHg 95%
    06:00 +18°C° 0.1 mm 4 mps 745 mmHg 94%
    07:00 +18°C° 0.1 mm 4 mps 746 mmHg 94%
    08:00 +18°C° 0 mm 4 mps 746 mmHg 93%
    09:00 +19°C° 0 mm 4 mps 746 mmHg 92%
    10:00 +19°C° 0 mm 4 mps 746 mmHg 91%
    11:00 +20°C° 0.1 mm 4 mps 746 mmHg 90%
    12:00 +20°C° 0.1 mm 4 mps 746 mmHg 89%
    13:00 +20°C° 0.1 mm 4 mps 746 mmHg 89%
    14:00 +21°C° 0 mm 4 mps 746 mmHg 87%
    15:00 +21°C° 0 mm 3 mps 746 mmHg 85%
    16:00 +22°C° 0 mm 3 mps 746 mmHg 83%
    17:00 +21°C° 0 mm 3 mps 747 mmHg 85%
    18:00 +21°C° 0 mm 2 mps 747 mmHg 86%
    19:00 +21°C° 0 mm 2 mps 747 mmHg 87%
    20:00 +20°C° 0 mm 2 mps 747 mmHg 90%
    21:00 +19°C° 0 mm 2 mps 747 mmHg 92%
    22:00 +18°C° 0 mm 2 mps 748 mmHg 95%
    23:00 +17°C° 0 mm 2 mps 747 mmHg 95%

    25 June, Tuesday

    Time Temperature Precipitation Wind Pressure Humidity
    00:00 +17°C° 0 mm 2 mps 747 mmHg 96%
    01:00 +17°C° 0 mm 2 mps 747 mmHg 96%
    02:00 +16°C° 0 mm 2 mps 747 mmHg 96%
    03:00 +16°C° 0 mm 2 mps 747 mmHg 97%
    04:00 +16°C° 0 mm 2 mps 747 mmHg 97%
    05:00 +18°C° 0 mm 2 mps 747 mmHg 94%
    06:00 +19°C° 0 mm 2 mps 748 mmHg 90%
    07:00 +20°C° 0 mm 2 mps 748 mmHg 87%
    08:00 +23°C° 0 mm 2 mps 748 mmHg 84%
    09:00 +24°C° 0 mm 2 mps 748 mmHg 81%
    10:00 +25°C° 0 mm 2 mps 748 mmHg 78%
    11:00 +26°C° 0.1 mm 2 mps 748 mmHg 75%
    12:00 +26°C° 0.1 mm 2 mps 748 mmHg 73%
    13:00 +27°C° 0.1 mm 2 mps 747 mmHg 71%
    14:00 +27°C° 0.1 mm 2 mps 747 mmHg 70%
    15:00 +27°C° 0.1 mm 2 mps 747 mmHg 70%
    16:00 +28°C° 0.1 mm 3 mps 747 mmHg 69%
    17:00 +27°C° 0 mm 2 mps 747 mmHg 74%
    18:00 +26°C° 0 mm 2 mps 747 mmHg 78%
    19:00 +25°C° 0 mm 2 mps 747 mmHg 83%
    20:00 +23°C° 0 mm 2 mps 747 mmHg 86%
    21:00 +21°C° 0 mm 2 mps 747 mmHg 89%
    22:00 +20°C° 0 mm 2 mps 748 mmHg 92%
    23:00 +19°C° 0 mm 2 mps 747 mmHg 92%
    Show more